Flag for Germany Weather past 2 weeks in Gotha, Thuringia, Germany

Now
58 °F

Overcast.


Feels Like: 57 °F
Forecast: 43 / 54 °F
Wind: 5 mph from West

Location: Erfurt-Bindersleben

Current Time: Sep 21, 2014 at 2:56:12 AM

Latest Report: Sep 21, 2014 at 2:00 AM


Visibility: 25 mi

Pressure: 29.94 "Hg

Humidity: 94%

Dew point: 56 °F

Location of GothaLocation

Historic Weather in Gotha — Graph

°F

Gotha temperature yesterday

Maximum temperature yesterday: 69 °F (at 12:00 PM)
Minimum temperature yesterday: 56 °F (at 10:00 PM)
Average temperature yesterday: 61 °F

Past Weeks' High & Low Weather Summary

 TemperatureHumidityPressure
High73 °F (Sep 19, 2:00 PM)99% (Sep 7, 8:00 AM)30.18 "Hg (Sep 7, 8:00 AM)
Low52 °F (Sep 11, 12:00 AM)53% (Sep 16, 4:00 PM)29.85 "Hg (Sep 6, 5:00 PM)
Average60 °F87%30.01 "Hg
* Reported Sep 6 1:00 AM — Sep 21 1:00 AM, Gotha, Weather by CustomWeather, © 2014

Note: Actual official high and low records may vary slightly from our data, if they occured in-between our weather recording intervals... More about our weather records

Advertising

Gotha weather history for previous 24 hours

 ConditionsComfort  
Time TempWeatherWind HumidityBarometerVisibility
1:00 AM
Sep 21
57 °FOvercast.5 mph94%29.95 "Hg25 mi
12:00 AM56 °FPassing clouds.5 mph96%29.96 "Hg31 mi
11:00 PM
Sep 20
56 °FPassing clouds.5 mph97%29.95 "Hg31 mi
10:00 PM56 °FPassing clouds.3 mph95%29.95 "Hg31 mi
9:00 PM58 °FPassing clouds.3 mph92%29.96 "Hg31 mi
8:00 PM58 °FOvercast.3 mph92%29.94 "Hg25 mi
3:00 PM67 °FThunderstorms. Overcast.7 mph82%29.92 "Hg12 mi
2:00 PM69 °FThunderstorms. Overcast.5 mph79%29.92 "Hg12 mi
1:00 PM68 °FPartly sunny.5 mph81%29.93 "Hg17 mi
12:00 PM69 °FScattered clouds.3 mph84%29.92 "Hg16 mi
11:00 AM67 °FPassing clouds.5 mph86%29.93 "Hg14 mi
10:00 AM64 °FScattered clouds.3 mph90%29.93 "Hg11 mi
9:00 AM62 °FScattered clouds.2 mph94%29.93 "Hg15 mi
8:00 AM59 °FScattered clouds.3 mph96%29.94 "Hg12 mi
7:00 AM58 °FPartly sunny.3 mph96%29.94 "Hg16 mi
6:00 AM58 °FPassing clouds.2 mph94%29.93 "Hg16 mi
5:00 AM60 °FPassing clouds.3 mph96%29.93 "Hg16 mi
4:00 AM58 °FPassing clouds.3 mph97%29.94 "Hg16 mi
3:00 AM58 °FPassing clouds.2 mph95%29.95 "Hg16 mi
2:00 AM58 °FPassing clouds.3 mph98%29.95 "Hg19 mi
Weather by CustomWeather, © 2014

See weather overviewHow to use our weather pages